Location: Newark
(44.6768°N, 22.5302°E)
Time: 14:47:29
(UTC+00:00)

CAS-6 - Pass Details

Date: 06 July 2022
Orbit: 613 x 634 km, 97.9° (Epoch: 19 August)

Event Time Altitude Azimuth Distance (km) Brightness Sun altitude
Exits shadow 19:57:46 19° 116° (ESE) 1,514 ? -13.8°
Maximum altitude 20:00:06 30° 68° (ENE) 1,123 ? -14.0°
Drops below altitude 10° 20:03:52 10° 7° (N) 1,997 ? -14.4°
Sets 20:06:15 0° 357° (N) 2,904 ? -14.6°
